Time,TemperatureF,DewpointF,PressureIn,WindDirection,WindDirectionDegrees,WindSpeedMPH,WindSpeedGustMPH,Humidity,HourlyPrecipIn,Conditions,Clouds,dailyrainin,SoftwareType,DateUTC
2013-09-23 00:01:00,68.9,68.0,29.86,NNE,20,11.0,11.0,97,0.00,,---,0.00,VWS V14.01,2013-09-23 04:01:00,
2013-09-23 00:02:00,69.0,68.1,29.86,North,5,13.0,13.0,97,0.00,,---,0.00,VWS V14.01,2013-09-23 04:02:00,
2013-09-23 00:07:00,69.0,68.7,29.86,NNE,18,11.0,18.0,99,0.00,,---,0.00,VWS V14.01,2013-09-23 04:07:00,
2013-09-23 00:12:00,69.0,68.4,29.86,NNE,28,9.0,18.0,98,0.00,,---,0.00,VWS V14.01,2013-09-23 04:12:00,
2013-09-23 00:17:00,69.0,68.4,29.86,North,7,10.0,18.0,98,0.00,,---,0.00,VWS V14.01,2013-09-23 04:17:00,
2013-09-23 00:22:00,69.0,68.4,29.86,NNE,18,12.0,18.0,98,0.00,,---,0.00,VWS V14.01,2013-09-23 04:22:00,
2013-09-23 00:27:00,69.1,68.5,29.87,NNE,21,14.0,18.0,98,0.00,,---,0.00,VWS V14.01,2013-09-23 04:27:00,
2013-09-23 00:32:00,69.0,68.4,29.87,NNE,13,8.0,12.0,98,0.00,,---,0.00,VWS V14.01,2013-09-23 04:32:00,
2013-09-23 00:37:00,69.0,68.1,29.87,NNE,15,7.0,13.0,97,0.00,,---,0.00,VWS V14.01,2013-09-23 04:37:00,
2013-09-23 00:42:00,69.0,68.1,29.87,NNE,19,10.0,15.0,97,0.00,,---,0.00,VWS V14.01,2013-09-23 04:42:00,
2013-09-23 00:47:00,68.9,68.0,29.87,NNE,16,7.0,15.0,97,0.00,,---,0.00,VWS V14.01,2013-09-23 04:47:00,
2013-09-23 00:52:00,68.9,67.7,29.87,North,355,6.0,15.0,96,0.00,,---,0.00,VWS V14.01,2013-09-23 04:52:00,
2013-09-23 00:57:00,68.9,68.0,29.87,North,6,9.0,15.0,97,0.00,,---,0.00,VWS V14.01,2013-09-23 04:57:00,
2013-09-23 01:02:00,68.8,67.6,29.88,NNE,13,10.0,11.0,96,0.00,,---,0.00,VWS V14.01,2013-09-23 05:02:00,
2013-09-23 01:07:00,68.9,67.7,29.88,NNE,32,11.0,18.0,96,0.00,,---,0.00,VWS V14.01,2013-09-23 05:07:00,
2013-09-23 01:12:00,68.9,67.4,29.88,NNE,15,7.0,18.0,95,0.00,,---,0.00,VWS V14.01,2013-09-23 05:12:00,
2013-09-23 01:17:00,68.8,67.3,29.88,NNE,16,8.0,18.0,95,0.00,,---,0.00,VWS V14.01,2013-09-23 05:17:00,
2013-09-23 01:22:00,68.8,67.3,29.88,NNE,13,11.0,18.0,95,0.00,,---,0.00,VWS V14.01,2013-09-23 05:22:00,
2013-09-23 01:27:00,68.7,67.5,29.88,North,4,7.0,18.0,96,0.00,,---,0.00,VWS V14.01,2013-09-23 05:27:00,
2013-09-23 01:32:00,68.7,67.2,29.88,North,2,6.0,11.0,95,0.00,,---,0.00,VWS V14.01,2013-09-23 05:32:00,
2013-09-23 01:37:00,68.7,67.5,29.88,North,5,13.0,17.0,96,0.00,,---,0.00,VWS V14.01,2013-09-23 05:37:00,
2013-09-23 01:42:00,68.7,67.8,29.88,North,5,12.0,17.0,97,0.00,,---,0.00,VWS V14.01,2013-09-23 05:42:00,
2013-09-23 01:47:00,68.7,67.5,29.88,NNE,16,9.0,17.0,96,0.00,,---,0.00,VWS V14.01,2013-09-23 05:47:00,
2013-09-23 01:52:00,68.7,67.5,29.88,NNE,20,17.0,17.0,96,0.00,,---,0.00,VWS V14.01,2013-09-23 05:52:00,
2013-09-23 01:57:00,68.6,66.8,29.88,NNE,22,9.0,18.0,94,0.00,,---,0.00,VWS V14.01,2013-09-23 05:57:00,
2013-09-23 02:02:00,68.6,67.4,29.89,NNE,22,13.0,14.0,96,0.00,,---,0.00,VWS V14.01,2013-09-23 06:02:00,
2013-09-23 02:07:00,68.6,67.1,29.89,North,1,10.0,14.0,95,0.00,,---,0.00,VWS V14.01,2013-09-23 06:07:00,
2013-09-23 02:12:00,68.6,67.1,29.89,North,8,9.0,14.0,95,0.00,,---,0.00,VWS V14.01,2013-09-23 06:12:00,
2013-09-23 02:17:00,68.6,67.1,29.89,North,9,11.0,14.0,95,0.00,,---,0.00,VWS V14.01,2013-09-23 06:17:00,
2013-09-23 02:22:00,68.6,66.8,29.89,NNE,28,11.0,15.0,94,0.00,,---,0.00,VWS V14.01,2013-09-23 06:22:00,
2013-09-23 02:27:00,68.5,66.7,29.89,North,359,7.0,15.0,94,0.00,,---,0.00,VWS V14.01,2013-09-23 06:27:00,
2013-09-23 02:32:00,68.5,66.7,29.88,North,3,4.0,14.0,94,0.00,,---,0.00,VWS V14.01,2013-09-23 06:32:00,
2013-09-23 02:37:00,68.5,66.7,29.88,NNW,343,7.0,14.0,94,0.00,,---,0.00,VWS V14.01,2013-09-23 06:37:00,
2013-09-23 02:42:00,68.4,66.9,29.89,North,2,10.0,14.0,95,0.00,,---,0.00,VWS V14.01,2013-09-23 06:42:00,
2013-09-23 02:47:00,68.3,66.8,29.88,North,0,8.0,14.0,95,0.00,,---,0.00,VWS V14.01,2013-09-23 06:47:00,
2013-09-23 02:52:00,68.3,66.5,29.88,North,351,6.0,14.0,94,0.00,,---,0.00,VWS V14.01,2013-09-23 06:52:00,
2013-09-23 02:57:00,68.2,66.7,29.88,North,356,8.0,14.0,95,0.00,,---,0.00,VWS V14.01,2013-09-23 06:57:00,
2013-09-23 03:02:00,68.1,66.6,29.88,North,2,6.0,10.0,95,0.00,,---,0.00,VWS V14.01,2013-09-23 07:02:00,
2013-09-23 03:07:00,68.0,66.2,29.88,North,1,4.0,10.0,94,0.00,,---,0.00,VWS V14.01,2013-09-23 07:07:00,
2013-09-23 03:12:00,67.9,66.1,29.89,North,357,4.0,12.0,94,0.00,,---,0.00,VWS V14.01,2013-09-23 07:12:00,
2013-09-23 03:17:00,67.9,66.1,29.89,North,350,7.0,13.0,94,0.00,,---,0.00,VWS V14.01,2013-09-23 07:17:00,
2013-09-23 03:22:00,67.9,66.7,29.89,North,2,10.0,13.0,96,0.00,,---,0.00,VWS V14.01,2013-09-23 07:22:00,
2013-09-23 03:27:00,67.8,66.3,29.89,North,1,9.0,13.0,95,0.00,,---,0.00,VWS V14.01,2013-09-23 07:27:00,
2013-09-23 03:32:00,67.8,66.0,29.89,NNE,25,6.0,11.0,94,0.00,,---,0.00,VWS V14.01,2013-09-23 07:32:00,
2013-09-23 03:37:00,67.8,66.0,29.89,NNW,346,9.0,14.0,94,0.00,,---,0.00,VWS V14.01,2013-09-23 07:37:00,
2013-09-23 03:42:00,67.8,66.0,29.89,North,3,11.0,14.0,94,0.00,,---,0.00,VWS V14.01,2013-09-23 07:42:00,
2013-09-23 03:47:00,67.7,65.9,29.89,North,1,6.0,14.0,94,0.00,,---,0.00,VWS V14.01,2013-09-23 07:47:00,
2013-09-23 03:52:00,67.7,66.2,29.89,North,7,9.0,14.0,95,0.00,,---,0.00,VWS V14.01,2013-09-23 07:52:00,
2013-09-23 03:57:00,67.7,65.9,29.89,North,1,6.0,14.0,94,0.00,,---,0.00,VWS V14.01,2013-09-23 07:57:00,
2013-09-23 04:02:00,67.7,65.9,29.89,North,2,9.0,10.0,94,0.00,,---,0.00,VWS V14.01,2013-09-23 08:02:00,
2013-09-23 04:07:00,67.7,66.2,29.89,NNE,19,9.0,13.0,95,0.00,,---,0.00,VWS V14.01,2013-09-23 08:07:00,
2013-09-23 04:12:00,67.7,66.2,29.89,North,1,8.0,13.0,95,0.00,,---,0.00,VWS V14.01,2013-09-23 08:12:00,
2013-09-23 04:17:00,67.6,66.1,29.90,North,3,7.0,13.0,95,0.00,,---,0.00,VWS V14.01,2013-09-23 08:17:00,
2013-09-23 04:22:00,67.6,66.1,29.90,North,2,6.0,13.0,95,0.00,,---,0.00,VWS V14.01,2013-09-23 08:22:00,
2013-09-23 04:28:00,67.6,66.1,29.90,NNE,17,7.0,13.0,95,0.00,,---,0.00,VWS V14.01,2013-09-23 08:28:00,
2013-09-23 04:33:00,67.5,66.0,29.90,North,0,4.0,11.0,95,0.00,,---,0.00,VWS V14.01,2013-09-23 08:33:00,
2013-09-23 04:38:00,67.4,66.2,29.90,North,0,2.0,11.0,96,0.00,,---,0.00,VWS V14.01,2013-09-23 08:38:00,
2013-09-23 04:43:00,67.1,65.6,29.91,North,359,4.0,11.0,95,0.00,,---,0.00,VWS V14.01,2013-09-23 08:43:00,
2013-09-23 04:48:00,67.0,65.8,29.91,North,1,6.0,11.0,96,0.00,,---,0.00,VWS V14.01,2013-09-23 08:48:00,
2013-09-23 04:53:00,66.8,65.6,29.91,North,2,9.0,11.0,96,0.00,,---,0.00,VWS V14.01,2013-09-23 08:53:00,
2013-09-23 04:58:00,66.7,65.5,29.91,North,358,4.0,11.0,96,0.00,,---,0.00,VWS V14.01,2013-09-23 08:58:00,
2013-09-23 05:03:00,66.5,65.6,29.91,North,359,7.0,8.0,97,0.00,,---,0.00,VWS V14.01,2013-09-23 09:03:00,
2013-09-23 05:08:00,66.4,65.5,29.91,NNW,346,7.0,10.0,97,0.00,,---,0.00,VWS V14.01,2013-09-23 09:08:00,
2013-09-23 05:12:00,66.3,65.4,29.91,North,357,3.0,10.0,97,0.00,,---,0.00,VWS V14.01,2013-09-23 09:12:00,
2013-09-23 05:18:00,66.2,65.6,29.91,North,0,3.0,10.0,98,0.00,,---,0.00,VWS V14.01,2013-09-23 09:18:00,
2013-09-23 05:23:00,66.0,65.4,29.91,North,1,6.0,10.0,98,0.00,,---,0.00,VWS V14.01,2013-09-23 09:23:00,
2013-09-23 05:28:00,65.9,65.3,29.92,North,6,5.0,10.0,98,0.00,,---,0.00,VWS V14.01,2013-09-23 09:28:00,
2013-09-23 05:32:00,65.8,65.2,29.92,North,2,6.0,7.0,98,0.00,,---,0.00,VWS V14.01,2013-09-23 09:32:00,
2013-09-23 05:38:00,65.8,65.2,29.92,North,2,4.0,9.0,98,0.00,,---,0.00,VWS V14.01,2013-09-23 09:38:00,
2013-09-23 05:43:00,65.7,65.1,29.92,North,1,3.0,9.0,98,0.00,,---,0.00,VWS V14.01,2013-09-23 09:43:00,
2013-09-23 05:47:00,65.7,65.4,29.92,North,350,3.0,9.0,99,0.00,,---,0.00,VWS V14.01,2013-09-23 09:47:00,
2013-09-23 05:52:00,65.6,65.3,29.93,North,356,4.0,9.0,99,0.00,,---,0.00,VWS V14.01,2013-09-23 09:52:00,
2013-09-23 05:57:00,65.5,65.2,29.93,North,355,4.0,9.0,99,0.00,,---,0.00,VWS V14.01,2013-09-23 09:57:00,
2013-09-23 06:02:00,65.4,65.1,29.93,North,0,3.0,8.0,99,0.00,,---,0.00,VWS V14.01,2013-09-23 10:02:00,
2013-09-23 06:07:00,65.3,65.3,29.94,North,351,4.0,8.0,100,0.00,,---,0.00,VWS V14.01,2013-09-23 10:07:00,
2013-09-23 06:12:00,65.2,65.2,29.94,North,356,3.0,8.0,100,0.00,,---,0.00,VWS V14.01,2013-09-23 10:12:00,
2013-09-23 06:17:00,65.1,64.8,29.94,North,356,6.0,8.0,99,0.00,,---,0.00,VWS V14.01,2013-09-23 10:17:00,
2013-09-23 06:22:00,65.0,65.0,29.94,North,350,4.0,8.0,100,0.00,,---,0.00,VWS V14.01,2013-09-23 10:22:00,
2013-09-23 06:27:00,65.0,65.0,29.94,North,5,6.0,11.0,100,0.00,,---,0.00,VWS V14.01,2013-09-23 10:27:00,
2013-09-23 06:32:00,64.9,64.9,29.95,North,354,4.0,7.0,100,0.00,,---,0.00,VWS V14.01,2013-09-23 10:32:00,
2013-09-23 06:37:00,64.8,64.8,29.95,North,353,4.0,10.0,100,0.00,,---,0.00,VWS V14.01,2013-09-23 10:37:00,
2013-09-23 06:42:00,64.7,64.4,29.95,North,1,6.0,14.0,99,0.00,,---,0.00,VWS V14.01,2013-09-23 10:42:00,
2013-09-23 06:47:00,64.7,64.7,29.95,NNE,12,7.0,14.0,100,0.00,,---,0.00,VWS V14.01,2013-09-23 10:47:00,
2013-09-23 06:52:00,64.7,64.4,29.96,North,359,7.0,14.0,99,0.00,,---,0.00,VWS V14.01,2013-09-23 10:52:00,
2013-09-23 06:57:00,64.7,64.1,29.96,North,9,10.0,14.0,98,0.00,,---,0.00,VWS V14.01,2013-09-23 10:57:00,
2013-09-23 07:02:00,64.6,64.3,29.96,North,11,6.0,12.0,99,0.00,,---,0.00,VWS V14.01,2013-09-23 11:02:00,
2013-09-23 07:07:00,64.6,64.0,29.97,North,3,6.0,12.0,98,0.00,,---,0.00,VWS V14.01,2013-09-23 11:07:00,
2013-09-23 07:12:00,64.5,64.2,29.97,North,2,8.0,13.0,99,0.00,,---,0.00,VWS V14.01,2013-09-23 11:12:00,
2013-09-23 07:17:00,64.5,63.9,29.97,North,0,9.0,13.0,98,0.00,,---,0.00,VWS V14.01,2013-09-23 11:17:00,
2013-09-23 07:22:00,64.5,64.2,29.97,North,0,7.0,13.0,99,0.00,,---,0.00,VWS V14.01,2013-09-23 11:22:00,
2013-09-23 07:27:00,64.4,64.1,29.97,North,9,8.0,13.0,99,0.00,,---,0.00,VWS V14.01,2013-09-23 11:27:00,
2013-09-23 07:32:00,64.4,63.8,29.97,North,2,11.0,13.0,98,0.00,,---,0.00,VWS V14.01,2013-09-23 11:32:00,
2013-09-23 07:37:00,64.3,63.4,29.98,NNW,343,12.0,14.0,97,0.00,,---,0.00,VWS V14.01,2013-09-23 11:37:00,
2013-09-23 07:42:00,64.3,63.4,29.98,North,7,10.0,16.0,97,0.00,,---,0.00,VWS V14.01,2013-09-23 11:42:00,
2013-09-23 07:47:00,64.2,63.0,29.98,North,357,9.0,16.0,96,0.00,,---,0.00,VWS V14.01,2013-09-23 11:47:00,
2013-09-23 07:52:00,64.3,63.1,29.98,North,3,13.0,16.0,96,0.00,,---,0.00,VWS V14.01,2013-09-23 11:52:00,
2013-09-23 07:58:00,64.3,63.4,29.98,North,4,11.0,16.0,97,0.00,,---,0.00,VWS V14.01,2013-09-23 11:58:00,
2013-09-23 08:03:00,64.3,62.8,29.99,North,358,10.0,16.0,95,0.00,,---,0.00,VWS V14.01,2013-09-23 12:03:00,
2013-09-23 08:08:00,64.3,62.8,29.99,NNE,21,13.0,16.0,95,0.00,,---,0.00,VWS V14.01,2013-09-23 12:08:00,
2013-09-23 08:12:00,64.4,62.6,29.99,North,8,9.0,16.0,94,0.00,,---,0.00,VWS V14.01,2013-09-23 12:12:00,
2013-09-23 08:17:00,64.4,62.3,30.00,North,8,12.0,16.0,93,0.00,,---,0.00,VWS V14.01,2013-09-23 12:17:00,
2013-09-23 08:22:00,64.5,62.7,30.00,NNE,12,9.0,16.0,94,0.00,,---,0.00,VWS V14.01,2013-09-23 12:22:00,
2013-09-23 08:27:00,64.5,62.4,30.00,NNE,19,9.0,16.0,93,0.00,,---,0.00,VWS V14.01,2013-09-23 12:27:00,
2013-09-23 08:32:00,64.5,62.4,30.00,NNE,14,11.0,14.0,93,0.00,,---,0.00,VWS V14.01,2013-09-23 12:32:00,
2013-09-23 08:37:00,64.6,61.9,30.00,North,7,14.0,19.0,91,0.00,,---,0.00,VWS V14.01,2013-09-23 12:37:00,
2013-09-23 08:42:00,64.6,62.5,30.00,North,1,14.0,19.0,93,0.00,,---,0.00,VWS V14.01,2013-09-23 12:42:00,
2013-09-23 08:47:00,64.7,62.3,30.00,North,8,9.0,19.0,92,0.00,,---,0.00,VWS V14.01,2013-09-23 12:47:00,
2013-09-23 08:52:00,64.7,61.7,30.01,North,11,11.0,19.0,90,0.00,,---,0.00,VWS V14.01,2013-09-23 12:52:00,
2013-09-23 08:57:00,64.7,61.7,30.01,North,7,11.0,19.0,90,0.00,,---,0.00,VWS V14.01,2013-09-23 12:57:00,
2013-09-23 09:02:00,64.7,61.7,30.01,NNE,12,13.0,15.0,90,0.00,,---,0.00,VWS V14.01,2013-09-23 13:02:00,
2013-09-23 09:07:00,64.8,61.5,30.01,NNE,14,9.0,17.0,89,0.00,,---,0.00,VWS V14.01,2013-09-23 13:07:00,
2013-09-23 09:12:00,64.9,61.3,30.01,NNE,12,11.0,17.0,88,0.00,,---,0.00,VWS V14.01,2013-09-23 13:12:00,
2013-09-23 09:17:00,64.9,60.6,30.01,NNE,30,16.0,17.0,86,0.00,,---,0.00,VWS V14.01,2013-09-23 13:17:00,
2013-09-23 09:22:00,64.9,60.6,30.01,NNE,29,16.0,17.0,86,0.00,,---,0.00,VWS V14.01,2013-09-23 13:22:00,
2013-09-23 09:27:00,65.0,60.4,30.01,North,10,11.0,17.0,85,0.00,,---,0.00,VWS V14.01,2013-09-23 13:27:00,
2013-09-23 09:32:00,65.2,60.2,30.02,NNE,13,12.0,18.0,84,0.00,,---,0.00,VWS V14.01,2013-09-23 13:32:00,
2013-09-23 09:37:00,65.3,60.7,30.02,NNE,21,16.0,18.0,85,0.00,,---,0.00,VWS V14.01,2013-09-23 13:37:00,
2013-09-23 09:42:00,65.4,60.5,30.02,NNE,24,12.0,18.0,84,0.00,,---,0.00,VWS V14.01,2013-09-23 13:42:00,
2013-09-23 09:47:00,65.5,60.9,30.02,NNE,24,14.0,18.0,85,0.00,,---,0.00,VWS V14.01,2013-09-23 13:47:00,
2013-09-23 09:52:00,65.6,60.6,30.02,NNE,20,12.0,18.0,84,0.00,,---,0.00,VWS V14.01,2013-09-23 13:52:00,
2013-09-23 09:57:00,65.7,60.7,30.02,NNE,15,13.0,18.0,84,0.00,,---,0.00,VWS V14.01,2013-09-23 13:57:00,
2013-09-23 10:02:00,65.9,61.3,30.03,NE,34,14.0,16.0,85,0.00,,---,0.00,VWS V14.01,2013-09-23 14:02:00,
2013-09-23 10:07:00,65.8,60.5,30.03,NNE,17,8.0,16.0,83,0.00,,---,0.00,VWS V14.01,2013-09-23 14:07:00,
2013-09-23 10:12:00,65.9,60.3,30.03,NNE,14,8.0,18.0,82,0.00,,---,0.00,VWS V14.01,2013-09-23 14:12:00,
2013-09-23 10:17:00,66.0,60.7,30.03,NNE,25,15.0,18.0,83,0.00,,---,0.00,VWS V14.01,2013-09-23 14:17:00,
2013-09-23 10:22:00,66.1,60.8,30.03,NE,35,15.0,18.0,83,0.00,,---,0.00,VWS V14.01,2013-09-23 14:22:00,
2013-09-23 10:27:00,66.2,60.2,30.03,NNW,345,10.0,18.0,81,0.00,,---,0.00,VWS V14.01,2013-09-23 14:27:00,
2013-09-23 10:32:00,66.2,59.9,30.03,NNE,22,11.0,14.0,80,0.00,,---,0.00,VWS V14.01,2013-09-23 14:32:00,
2013-09-23 10:37:00,66.3,60.0,30.03,NNE,12,13.0,16.0,80,0.00,,---,0.00,VWS V14.01,2013-09-23 14:37:00,
2013-09-23 10:42:00,66.5,60.5,30.03,NNE,26,12.0,17.0,81,0.00,,---,0.00,VWS V14.01,2013-09-23 14:42:00,
2013-09-23 10:47:00,66.6,59.9,30.04,NE,36,10.0,19.0,79,0.00,,---,0.01,VWS V14.01,2013-09-23 14:47:00,
2013-09-23 10:52:00,66.6,59.9,30.04,NNE,31,14.0,20.0,79,0.00,,---,0.00,VWS V14.01,2013-09-23 14:52:00,
2013-09-23 10:57:00,66.7,58.9,30.04,NE,36,9.0,20.0,76,0.00,,---,0.00,VWS V14.01,2013-09-23 14:57:00,
2013-09-23 11:02:00,66.8,59.7,30.04,NNE,28,18.0,18.0,78,0.00,,---,0.00,VWS V14.01,2013-09-23 15:02:00,
2013-09-23 11:07:00,66.9,58.3,30.04,North,9,16.0,20.0,74,0.00,,---,0.00,VWS V14.01,2013-09-23 15:07:00,
2013-09-23 11:12:00,66.9,58.7,30.04,North,8,11.0,20.0,75,0.00,,---,0.00,VWS V14.01,2013-09-23 15:12:00,
2013-09-23 11:18:00,66.9,58.0,30.04,NE,44,8.0,20.0,73,0.00,,---,0.00,VWS V14.01,2013-09-23 15:18:00,
2013-09-23 11:23:00,67.0,58.5,30.04,NNE,18,13.0,20.0,74,0.00,,---,0.00,VWS V14.01,2013-09-23 15:23:00,
2013-09-23 11:28:00,67.1,58.5,30.04,NNE,31,7.0,20.0,74,0.00,,---,0.00,VWS V14.01,2013-09-23 15:28:00,
2013-09-23 11:33:00,67.2,59.0,30.04,NE,34,14.0,17.0,75,0.00,,---,0.00,VWS V14.01,2013-09-23 15:33:00,
2013-09-23 11:38:00,67.2,58.6,30.04,NE,45,17.0,17.0,74,0.00,,---,0.00,VWS V14.01,2013-09-23 15:38:00,
2013-09-23 11:43:00,67.1,58.2,30.04,NE,56,8.0,17.0,73,0.00,,---,0.00,VWS V14.01,2013-09-23 15:43:00,
2013-09-23 11:48:00,67.2,59.8,30.04,NE,38,12.0,17.0,77,0.00,,---,0.00,VWS V14.01,2013-09-23 15:48:00,
2013-09-23 11:53:00,67.3,59.1,30.05,NE,42,10.0,18.0,75,0.00,,---,0.00,VWS V14.01,2013-09-23 15:53:00,
2013-09-23 11:58:00,67.3,58.4,30.05,NNE,30,8.0,18.0,73,0.00,,---,0.00,VWS V14.01,2013-09-23 15:58:00,
2013-09-23 12:03:00,67.5,59.3,30.05,NNE,32,12.0,13.0,75,0.00,,---,0.00,VWS V14.01,2013-09-23 16:03:00,
2013-09-23 12:08:00,67.5,59.7,30.05,NE,36,15.0,16.0,76,0.00,,---,0.00,VWS V14.01,2013-09-23 16:08:00,
2013-09-23 12:13:00,67.7,59.1,30.05,North,11,13.0,16.0,74,0.00,,---,0.00,VWS V14.01,2013-09-23 16:13:00,
2013-09-23 12:18:00,67.8,58.8,30.05,NNE,16,12.0,20.0,73,0.00,,---,0.00,VWS V14.01,2013-09-23 16:18:00,
2013-09-23 12:23:00,67.9,59.3,30.05,NNE,22,14.0,20.0,74,0.00,,---,0.00,VWS V14.01,2013-09-23 16:23:00,
2013-09-23 12:28:00,68.1,59.9,30.05,NNE,27,10.0,20.0,75,0.00,,---,0.00,VWS V14.01,2013-09-23 16:28:00,
2013-09-23 12:33:00,68.0,59.0,30.05,NNE,33,11.0,15.0,73,0.00,,---,0.00,VWS V14.01,2013-09-23 16:33:00,
2013-09-23 12:38:00,68.2,59.2,30.05,NNE,29,13.0,16.0,73,0.00,,---,0.00,VWS V14.01,2013-09-23 16:38:00,
2013-09-23 12:43:00,68.3,58.9,30.05,NNE,30,12.0,18.0,72,0.00,,---,0.00,VWS V14.01,2013-09-23 16:43:00,
2013-09-23 12:48:00,68.3,59.3,30.05,North,7,5.0,18.0,73,0.00,,---,0.00,VWS V14.01,2013-09-23 16:48:00,
2013-09-23 12:53:00,68.4,59.8,30.05,North,357,5.0,18.0,74,0.00,,---,0.00,VWS V14.01,2013-09-23 16:53:00,
2013-09-23 12:58:00,68.5,58.7,30.05,North,355,10.0,18.0,71,0.00,,---,0.00,VWS V14.01,2013-09-23 16:58:00,
2013-09-23 13:03:00,68.6,58.8,30.05,NNE,29,14.0,15.0,71,0.00,,---,0.00,VWS V14.01,2013-09-23 17:03:00,
2013-09-23 13:08:00,68.6,59.2,30.05,NE,35,10.0,15.0,72,0.00,,---,0.00,VWS V14.01,2013-09-23 17:08:00,
2013-09-23 13:13:00,68.6,59.2,30.05,NNE,20,14.0,18.0,72,0.00,,---,0.00,VWS V14.01,2013-09-23 17:13:00,
2013-09-23 13:18:00,68.8,58.6,30.05,NNE,23,10.0,18.0,70,0.00,,---,0.00,VWS V14.01,2013-09-23 17:18:00,
2013-09-23 13:23:00,68.8,58.2,30.05,NNE,33,12.0,18.0,69,0.00,,---,0.00,VWS V14.01,2013-09-23 17:23:00,
2013-09-23 13:28:00,68.9,59.1,30.05,NNE,16,10.0,18.0,71,0.00,,---,0.00,VWS V14.01,2013-09-23 17:28:00,
2013-09-23 13:33:00,69.0,59.2,30.04,NNE,13,7.0,9.0,71,0.00,,---,0.00,VWS V14.01,2013-09-23 17:33:00,
2013-09-23 13:38:00,69.2,59.4,30.04,North,356,10.0,16.0,71,0.00,,---,0.00,VWS V14.01,2013-09-23 17:38:00,
2013-09-23 13:43:00,69.2,59.0,30.04,North,1,7.0,16.0,70,0.00,,---,0.00,VWS V14.01,2013-09-23 17:43:00,
2013-09-23 13:48:00,69.2,59.8,30.03,North,2,7.0,16.0,72,0.00,,---,0.00,VWS V14.01,2013-09-23 17:48:00,
2013-09-23 13:53:00,69.3,59.5,30.03,North,0,4.0,16.0,71,0.00,,---,0.00,VWS V14.01,2013-09-23 17:53:00,
2013-09-23 13:58:00,69.4,58.8,30.03,NNE,23,7.0,17.0,69,0.00,,---,0.00,VWS V14.01,2013-09-23 17:58:00,
2013-09-23 14:03:00,69.4,59.2,30.03,NE,36,6.0,15.0,70,0.00,,---,0.00,VWS V14.01,2013-09-23 18:03:00,
2013-09-23 14:08:00,69.4,59.2,30.03,NE,36,6.0,15.0,70,0.00,,---,0.00,VWS V14.01,2013-09-23 18:08:00,
2013-09-23 14:13:00,69.6,59.4,30.03,NNE,12,9.0,15.0,70,0.00,,---,0.00,VWS V14.01,2013-09-23 18:13:00,
2013-09-23 14:18:00,69.7,59.1,30.03,NNE,24,10.0,15.0,69,0.00,,---,0.00,VWS V14.01,2013-09-23 18:18:00,
2013-09-23 14:23:00,69.8,60.0,30.03,NNE,28,12.0,16.0,71,0.00,,---,0.00,VWS V14.01,2013-09-23 18:23:00,
2013-09-23 14:28:00,69.8,59.6,30.03,North,0,3.0,16.0,70,0.00,,---,0.00,VWS V14.01,2013-09-23 18:28:00,
2013-09-23 14:33:00,69.9,60.1,30.03,NNE,15,12.0,12.0,71,0.00,,---,0.00,VWS V14.01,2013-09-23 18:33:00,
2013-09-23 14:38:00,70.1,60.3,30.04,North,355,7.0,16.0,71,0.00,,---,0.00,VWS V14.01,2013-09-23 18:38:00,
2013-09-23 14:43:00,70.1,59.5,30.03,NNE,19,8.0,16.0,69,0.00,,---,0.00,VWS V14.01,2013-09-23 18:43:00,
2013-09-23 14:48:00,70.1,59.1,30.03,North,4,5.0,16.0,68,0.00,,---,0.00,VWS V14.01,2013-09-23 18:48:00,
2013-09-23 14:53:00,70.2,60.0,30.03,North,359,8.0,16.0,70,0.00,,---,0.00,VWS V14.01,2013-09-23 18:53:00,
2013-09-23 14:58:00,70.3,58.8,30.03,NNE,19,11.0,16.0,67,0.00,,---,0.00,VWS V14.01,2013-09-23 18:58:00,
2013-09-23 15:03:00,70.2,58.7,30.03,North,8,8.0,11.0,67,0.00,,---,0.00,VWS V14.01,2013-09-23 19:03:00,
2013-09-23 15:08:00,70.2,59.2,30.03,North,356,5.0,14.0,68,0.00,,---,0.00,VWS V14.01,2013-09-23 19:08:00,
2013-09-23 15:13:00,70.3,59.7,30.03,NNE,14,8.0,15.0,69,0.00,,---,0.00,VWS V14.01,2013-09-23 19:13:00,
2013-09-23 15:18:00,70.2,59.2,30.03,NNE,13,7.0,15.0,68,0.00,,---,0.00,VWS V14.01,2013-09-23 19:18:00,
2013-09-23 15:23:00,70.1,59.5,30.03,North,10,9.0,15.0,69,0.00,,---,0.00,VWS V14.01,2013-09-23 19:23:00,
2013-09-23 15:28:00,70.0,58.5,30.03,NNE,30,6.0,15.0,67,0.00,,---,0.00,VWS V14.01,2013-09-23 19:28:00,
2013-09-23 15:33:00,70.0,58.5,30.02,NNE,16,9.0,11.0,67,0.00,,---,0.00,VWS V14.01,2013-09-23 19:33:00,
2013-09-23 15:38:00,70.0,58.1,30.02,NE,39,6.0,11.0,66,0.00,,---,0.00,VWS V14.01,2013-09-23 19:38:00,
2013-09-23 15:43:00,69.9,58.9,30.03,NNE,23,10.0,16.0,68,0.00,,---,0.00,VWS V14.01,2013-09-23 19:43:00,
2013-09-23 15:48:00,69.8,58.8,30.03,NNE,30,6.0,16.0,68,0.00,,---,0.00,VWS V14.01,2013-09-23 19:48:00,
2013-09-23 15:53:00,69.7,58.7,30.03,NNE,20,8.0,16.0,68,0.00,,---,0.00,VWS V14.01,2013-09-23 19:53:00,
2013-09-23 15:58:00,69.7,59.1,30.03,North,2,7.0,16.0,69,0.00,,---,0.00,VWS V14.01,2013-09-23 19:58:00,
2013-09-23 16:03:00,69.7,59.5,30.03,North,354,7.0,11.0,70,0.00,,---,0.00,VWS V14.01,2013-09-23 20:03:00,
2013-09-23 16:08:00,69.6,59.4,30.03,North,3,5.0,11.0,70,0.00,,---,0.00,VWS V14.01,2013-09-23 20:08:00,
2013-09-23 16:13:00,69.7,59.5,30.03,NNE,16,6.0,11.0,70,0.00,,---,0.00,VWS V14.01,2013-09-23 20:13:00,
2013-09-23 16:18:00,69.9,58.5,30.03,North,1,3.0,11.0,67,0.00,,---,0.00,VWS V14.01,2013-09-23 20:18:00,
2013-09-23 16:23:00,70.0,59.4,30.03,NNE,14,11.0,12.0,69,0.00,,---,0.00,VWS V14.01,2013-09-23 20:23:00,
2013-09-23 16:28:00,70.1,59.9,30.03,North,1,7.0,12.0,70,0.00,,---,0.00,VWS V14.01,2013-09-23 20:28:00,
2013-09-23 16:33:00,70.4,60.2,30.03,NNE,20,6.0,14.0,70,0.00,,---,0.00,VWS V14.01,2013-09-23 20:33:00,
2013-09-23 16:39:00,70.3,58.8,30.03,NNE,29,10.0,15.0,67,0.00,,---,0.00,VWS V14.01,2013-09-23 20:39:00,
2013-09-23 16:44:00,70.2,59.6,30.04,North,10,5.0,15.0,69,0.00,,---,0.00,VWS V14.01,2013-09-23 20:44:00,
2013-09-23 16:49:00,70.1,59.5,30.04,North,2,8.0,15.0,69,0.00,,---,0.00,VWS V14.01,2013-09-23 20:49:00,
2013-09-23 16:54:00,70.0,59.4,30.03,NNE,17,7.0,15.0,69,0.00,,---,0.00,VWS V14.01,2013-09-23 20:54:00,
2013-09-23 16:59:00,70.0,59.8,30.04,North,359,4.0,15.0,70,0.00,,---,0.00,VWS V14.01,2013-09-23 20:59:00,
2013-09-23 17:04:00,70.1,59.1,30.04,North,2,4.0,9.0,68,0.00,,---,0.00,VWS V14.01,2013-09-23 21:04:00,
2013-09-23 17:09:00,70.1,59.9,30.04,North,0,8.0,13.0,70,0.00,,---,0.00,VWS V14.01,2013-09-23 21:09:00,
2013-09-23 17:14:00,70.0,59.8,30.04,North,356,10.0,13.0,70,0.00,,---,0.00,VWS V14.01,2013-09-23 21:14:00,
2013-09-23 17:19:00,69.9,60.1,30.04,North,0,3.0,13.0,71,0.00,,---,0.00,VWS V14.01,2013-09-23 21:19:00,
2013-09-23 17:24:00,69.8,59.2,30.04,North,10,4.0,13.0,69,0.00,,---,0.00,VWS V14.01,2013-09-23 21:24:00,
2013-09-23 17:29:00,69.8,58.8,30.04,North,6,1.0,13.0,68,0.00,,---,0.00,VWS V14.01,2013-09-23 21:29:00,
2013-09-23 17:34:00,69.8,59.2,30.04,NNE,15,3.0,7.0,69,0.00,,---,0.00,VWS V14.01,2013-09-23 21:34:00,
2013-09-23 17:39:00,69.8,58.8,30.04,NE,43,5.0,11.0,68,0.00,,---,0.00,VWS V14.01,2013-09-23 21:39:00,
2013-09-23 17:44:00,69.7,59.5,30.04,North,7,8.0,11.0,70,0.00,,---,0.00,VWS V14.01,2013-09-23 21:44:00,
2013-09-23 17:49:00,69.6,58.6,30.04,North,1,6.0,11.0,68,0.00,,---,0.00,VWS V14.01,2013-09-23 21:49:00,
2013-09-23 17:54:00,69.6,59.0,30.05,NNE,14,7.0,11.0,69,0.00,,---,0.00,VWS V14.01,2013-09-23 21:54:00,
2013-09-23 17:59:00,69.6,59.0,30.05,NE,42,5.0,11.0,69,0.00,,---,0.00,VWS V14.01,2013-09-23 21:59:00,
2013-09-23 18:04:00,69.5,58.5,30.05,NNE,27,4.0,8.0,68,0.00,,---,0.00,VWS V14.01,2013-09-23 22:04:00,
2013-09-23 18:09:00,69.5,58.5,30.05,NNE,24,6.0,8.0,68,0.00,,---,0.00,VWS V14.01,2013-09-23 22:09:00,
2013-09-23 18:14:00,69.5,58.9,30.05,North,357,3.0,8.0,69,0.00,,---,0.00,VWS V14.01,2013-09-23 22:14:00,
2013-09-23 18:19:00,69.5,60.1,30.05,NNE,31,6.0,11.0,72,0.00,,---,0.00,VWS V14.01,2013-09-23 22:19:00,
2013-09-23 18:24:00,69.3,59.9,30.06,NNE,22,7.0,11.0,72,0.00,,---,0.00,VWS V14.01,2013-09-23 22:24:00,
2013-09-23 18:29:00,69.1,59.7,30.06,NNE,27,4.0,11.0,72,0.00,,---,0.00,VWS V14.01,2013-09-23 22:29:00,
2013-09-23 18:34:00,68.9,59.5,30.06,NNE,19,6.0,9.0,72,0.00,,---,0.00,VWS V14.01,2013-09-23 22:34:00,
2013-09-23 18:39:00,68.7,58.5,30.05,NNE,33,4.0,9.0,70,0.00,,---,0.00,VWS V14.01,2013-09-23 22:39:00,
2013-09-23 18:44:00,68.6,59.2,30.05,NNE,26,4.0,9.0,72,0.00,,---,0.00,VWS V14.01,2013-09-23 22:44:00,
2013-09-23 18:49:00,68.4,59.0,30.05,NNE,26,4.0,9.0,72,0.00,,---,0.00,VWS V14.01,2013-09-23 22:49:00,
2013-09-23 18:54:00,68.2,58.5,30.05,NNE,24,5.0,9.0,71,0.00,,---,0.00,VWS V14.01,2013-09-23 22:54:00,
2013-09-23 18:59:00,68.0,58.7,30.05,NNE,21,3.0,9.0,72,0.00,,---,0.00,VWS V14.01,2013-09-23 22:59:00,
2013-09-23 19:04:00,67.9,58.5,30.06,NE,34,4.0,6.0,72,0.00,,---,0.00,VWS V14.01,2013-09-23 23:04:00,
2013-09-23 19:09:00,67.7,58.7,30.06,NNE,31,4.0,6.0,73,0.00,,---,0.00,VWS V14.01,2013-09-23 23:09:00,
2013-09-23 19:14:00,67.6,58.7,30.06,NNE,16,4.0,6.0,73,0.00,,---,0.00,VWS V14.01,2013-09-23 23:14:00,
2013-09-23 19:19:00,67.5,58.9,30.06,NNE,20,5.0,7.0,74,0.00,,---,0.00,VWS V14.01,2013-09-23 23:19:00,
2013-09-23 19:24:00,67.4,58.8,30.06,NE,39,4.0,7.0,74,0.00,,---,0.00,VWS V14.01,2013-09-23 23:24:00,
2013-09-23 19:29:00,67.2,58.6,30.06,NNE,28,6.0,7.0,74,0.00,,---,0.01,VWS V14.01,2013-09-23 23:29:00,
2013-09-23 19:34:00,67.0,58.5,30.06,NNE,13,4.0,8.0,74,0.00,,---,0.00,VWS V14.01,2013-09-23 23:34:00,
2013-09-23 19:39:00,67.0,58.8,30.06,NNE,25,5.0,8.0,75,0.00,,---,0.00,VWS V14.01,2013-09-23 23:39:00,
2013-09-23 19:44:00,66.8,58.6,30.06,NNE,30,4.0,8.0,75,0.00,,---,0.00,VWS V14.01,2013-09-23 23:44:00,
2013-09-23 19:49:00,66.7,58.5,30.06,NNE,18,3.0,8.0,75,0.00,,---,0.00,VWS V14.01,2013-09-23 23:49:00,
2013-09-23 19:54:00,66.6,58.8,30.06,NNE,18,4.0,8.0,76,0.00,,---,0.00,VWS V14.01,2013-09-23 23:54:00,
2013-09-23 19:59:00,66.5,58.7,30.06,NNE,22,0.0,8.0,76,0.00,,---,0.00,VWS V14.01,2013-09-23 23:59:00,
2013-09-23 20:04:00,66.4,58.6,30.07,NNE,12,3.0,6.0,76,0.00,,---,0.00,VWS V14.01,2013-09-24 00:04:00,
2013-09-23 20:09:00,66.3,58.9,30.07,NNE,24,4.0,7.0,77,0.00,,---,0.00,VWS V14.01,2013-09-24 00:09:00,
2013-09-23 20:14:00,66.2,58.8,30.07,NE,36,4.0,7.0,77,0.00,,---,0.00,VWS V14.01,2013-09-24 00:14:00,
2013-09-23 20:19:00,66.1,59.0,30.07,NNE,24,3.0,7.0,78,0.00,,---,0.00,VWS V14.01,2013-09-24 00:19:00,
2013-09-23 20:24:00,66.0,59.0,30.07,NNE,31,3.0,7.0,78,0.00,,---,0.00,VWS V14.01,2013-09-24 00:24:00,
2013-09-23 20:29:00,65.9,59.2,30.07,NE,35,6.0,7.0,79,0.00,,---,0.00,VWS V14.01,2013-09-24 00:29:00,
2013-09-23 20:34:00,65.8,59.1,30.07,NE,47,8.0,8.0,79,0.00,,---,0.00,VWS V14.01,2013-09-24 00:34:00,
2013-09-23 20:39:00,65.7,59.4,30.08,ENE,67,4.0,8.0,80,0.00,,---,0.00,VWS V14.01,2013-09-24 00:39:00,
2013-09-23 20:44:00,65.7,59.4,30.08,NE,45,6.0,8.0,80,0.00,,---,0.00,VWS V14.01,2013-09-24 00:44:00,
2013-09-23 20:49:00,65.6,59.3,30.08,East,80,4.0,8.0,80,0.00,,---,0.00,VWS V14.01,2013-09-24 00:49:00,
2013-09-23 20:54:00,65.5,59.2,30.08,NE,55,1.0,8.0,80,0.00,,---,0.00,VWS V14.01,2013-09-24 00:54:00,
2013-09-23 20:59:00,65.5,59.5,30.08,ENE,66,2.0,8.0,81,0.00,,---,0.00,VWS V14.01,2013-09-24 00:59:00,
2013-09-23 21:04:00,65.4,59.4,30.09,NE,56,1.0,8.0,81,0.00,,---,0.00,VWS V14.01,2013-09-24 01:04:00,
2013-09-23 21:09:00,65.3,59.3,30.09,ENE,72,4.0,8.0,81,0.00,,---,0.00,VWS V14.01,2013-09-24 01:09:00,
2013-09-23 21:14:00,65.3,59.3,30.09,ENE,58,2.0,8.0,81,0.00,,---,0.00,VWS V14.01,2013-09-24 01:14:00,
2013-09-23 21:19:00,65.2,59.2,30.09,NE,48,6.0,8.0,81,0.00,,---,0.00,VWS V14.01,2013-09-24 01:19:00,
2013-09-23 21:24:00,65.2,59.2,30.09,ENE,72,5.0,8.0,81,0.00,,---,0.00,VWS V14.01,2013-09-24 01:24:00,
2013-09-23 21:29:00,65.2,59.6,30.09,NE,42,3.0,8.0,82,0.00,,---,0.00,VWS V14.01,2013-09-24 01:29:00,
2013-09-23 21:34:00,65.1,59.5,30.09,NE,52,3.0,7.0,82,0.00,,---,0.00,VWS V14.01,2013-09-24 01:34:00,
2013-09-23 21:39:00,65.0,59.7,30.09,NE,54,4.0,7.0,83,0.00,,---,0.00,VWS V14.01,2013-09-24 01:39:00,
2013-09-23 21:44:00,65.0,59.7,30.09,ENE,58,6.0,9.0,83,0.00,,---,0.00,VWS V14.01,2013-09-24 01:44:00,
2013-09-23 21:49:00,64.9,59.3,30.09,ENE,70,4.0,9.0,82,0.00,,---,0.00,VWS V14.01,2013-09-24 01:49:00,
2013-09-23 21:54:00,64.9,59.6,30.09,ENE,61,3.0,9.0,83,0.00,,---,0.00,VWS V14.01,2013-09-24 01:54:00,
2013-09-23 21:59:00,64.8,59.2,30.09,NE,55,4.0,9.0,82,0.00,,---,0.00,VWS V14.01,2013-09-24 01:59:00,
2013-09-23 22:04:00,64.7,59.4,30.09,ENE,68,4.0,8.0,83,0.00,,---,0.00,VWS V14.01,2013-09-24 02:04:00,
2013-09-23 22:09:00,64.7,59.1,30.10,NE,54,3.0,8.0,82,0.00,,---,0.00,VWS V14.01,2013-09-24 02:09:00,
2013-09-23 22:14:00,64.6,59.3,30.10,ENE,72,4.0,8.0,83,0.00,,---,0.00,VWS V14.01,2013-09-24 02:14:00,
2013-09-23 22:19:00,64.6,59.3,30.10,ENE,62,6.0,8.0,83,0.00,,---,0.00,VWS V14.01,2013-09-24 02:19:00,
2013-09-23 22:24:00,64.5,59.2,30.10,ENE,71,4.0,8.0,83,0.00,,---,0.00,VWS V14.01,2013-09-24 02:24:00,
2013-09-23 22:29:00,64.5,59.2,30.10,ENE,72,5.0,8.0,83,0.00,,---,0.00,VWS V14.01,2013-09-24 02:29:00,
2013-09-23 22:34:00,64.4,59.5,30.10,ENE,71,4.0,7.0,84,0.00,,---,0.00,VWS V14.01,2013-09-24 02:34:00,
2013-09-23 22:39:00,64.3,59.4,30.10,East,97,2.0,7.0,84,0.00,,---,0.00,VWS V14.01,2013-09-24 02:39:00,
2013-09-23 22:44:00,64.2,59.6,30.10,East,86,2.0,7.0,85,0.00,,---,0.00,VWS V14.01,2013-09-24 02:44:00,
2013-09-23 22:49:00,64.1,59.5,30.11,ENE,66,4.0,7.0,85,0.00,,---,0.00,VWS V14.01,2013-09-24 02:49:00,
2013-09-23 22:54:00,64.1,59.5,30.11,ENE,64,2.0,7.0,85,0.00,,---,0.00,VWS V14.01,2013-09-24 02:54:00,
2013-09-23 22:59:00,64.0,59.4,30.11,ENE,70,3.0,7.0,85,0.00,,---,0.00,VWS V14.01,2013-09-24 02:59:00,
2013-09-23 23:04:00,63.9,59.6,30.11,ENE,76,2.0,6.0,86,0.00,,---,0.00,VWS V14.01,2013-09-24 03:04:00,
2013-09-23 23:09:00,63.8,59.5,30.11,ENE,69,4.0,7.0,86,0.00,,---,0.00,VWS V14.01,2013-09-24 03:09:00,
2013-09-23 23:14:00,63.8,59.2,30.11,ENE,69,4.0,7.0,85,0.00,,---,0.00,VWS V14.01,2013-09-24 03:14:00,
2013-09-23 23:19:00,63.9,59.3,30.11,ENE,63,6.0,8.0,85,0.00,,---,0.00,VWS V14.01,2013-09-24 03:19:00,
2013-09-23 23:24:00,63.9,59.3,30.11,ENE,72,4.0,8.0,85,0.00,,---,0.00,VWS V14.01,2013-09-24 03:24:00,
2013-09-23 23:29:00,63.9,59.3,30.11,NE,50,6.0,9.0,85,0.00,,---,0.00,VWS V14.01,2013-09-24 03:29:00,
2013-09-23 23:34:00,63.9,59.3,30.11,ENE,59,4.0,8.0,85,0.00,,---,0.00,VWS V14.01,2013-09-24 03:34:00,
2013-09-23 23:39:00,63.9,59.6,30.11,ENE,65,2.0,8.0,86,0.00,,---,0.00,VWS V14.01,2013-09-24 03:39:00,
2013-09-23 23:44:00,63.8,59.5,30.11,ENE,59,5.0,8.0,86,0.00,,---,0.00,VWS V14.01,2013-09-24 03:44:00,
2013-09-23 23:49:00,63.8,59.5,30.11,ENE,73,5.0,8.0,86,0.00,,---,0.00,VWS V14.01,2013-09-24 03:49:00,
2013-09-23 23:54:00,63.8,59.9,30.11,ENE,66,4.0,8.0,87,0.00,,---,0.00,VWS V14.01,2013-09-24 03:54:00,
2013-09-23 23:59:00,63.7,60.1,30.11,ENE,75,7.0,9.0,88,0.00,,---,0.00,VWS V14.01,2013-09-24 03:59:00,